CAPE
2639 2604 1845 1567 1383 1606 2168 2376 2236 1856 2208 1967 2960 3147 2088 2062 2217 2333 2163 2029 2125 2427 2207 1882 1661 2006 1758 1356 1430 1456 1525 899 1138 1184 921 667 646 931 2328 1867 2664 2602 3080 2953 3003 3053 2726 2253 1891 2012 2059 1927 2189 1692 916 1346 1886 2224 2390 1724 893 1446 1280 718 777 662 1052 3474 2463 2333 3453 2758 2964 2768 3285 3151 3116 2968 3077 3221 3025 2412 2228 2697 2526
2138 2625 1949 1978 1550 1544 2052 2787 2574 2653 2407 2726 2919 3478 2857 2265 1999 2487 2694 2407 2256 2200 2146 1796 1911 1675 1568 1068 854 891 1408 1357 1048 807 965 795 1324 2455 2345 1588 2180 2640 2969 3068 3013 2743 2920 2410 2325 2324 2148 2535 2276 2384 791 2123 2592 1911 1144 1442 1308 878 712 424 532 970 1472 1608 1623 2234 2811 3051 3310 2625 2837 3050 3097 2571 2391 2360 2440 2595 2770 3003 2891
2298 2510 2174 1960 2021 2133 2294 2654 2835 2575 2667 3044 3238 3651 3135 3098 2897 2743 2541 2507 2394 2218 2514 2266 2062 2137 1649 1547 1093 986 954 1025 930 848 773 533 442 1209 2135 2344 2583 2367 2621 2890 2733 2573 2481 2640 2303 2148 2444 2498 2815 2544 2280 2326 2329 1326 1795 1352 1074 572 540 376 1127 902 770 798 1512 2145 2464 1421 2631 3241 3256 3144 3302 3266 2858 2353 1888 1940 2226 2841 2419
2824 2402 2221 2308 2200 2080 2203 2587 2778 2447 2472 2941 3062 3211 3197 3412 3085 2935 3643 3122 2825 2355 2451 1841 1975 2151 2462 2060 1509 1639 1818 1467 1396 1063 695 386 392 586 2076 2346 2187 1848 2037 2117 2422 2243 2507 2208 1636 1637 2651 2743 2842 2963 2650 1758 2088 2234 1070 1071 1456 1125 575 525 357 498 682 1261 2206 1756 2068 1593 1886 2751 1898 2460 2410 2561 3458 2836 2398 2414 2253 2207 2563
2457 2430 2085 2294 2111 2104 2089 2372 2327 2380 2612 2865 2722 3082 2945 3176 3243 2994 3101 3320 2266 2625 2716 2559 2522 2544 2758 2293 2300 1979 1833 1524 1047 467 756 782 650 602 768 1835 1930 1760 1960 2099 2099 2503 2438 2398 2204 1794 2248 2614 1950 2237 2590 1440 1064 1101 1261 1605 1216 1134 736 662 839 390 753 1518 2705 1762 2197 2414 1576 2094 1191 2292 3073 2760 2000 2164 2816 2200 2067 2139 2346
2081 2364 2390 2125 2016 2141 1858 2126 2373 2396 2224 2450 2534 2652 2867 2914 3059 3021 3316 3080 2465 2343 2688 2936 2932 2248 2324 2510 2213 1758 1674 1271 966 688 423 480 477 558 699 1121 1463 1566 1685 1817 1724 1896 2413 2459 2394 1917 1473 2510 2493 1582 985 1199 1477 911 594 660 398 1223 1021 1157 832 712 578 2779 2121 2383 3537 2146 1888 1625 1825 1924 1988 2382 2819 2306 1452 1875 2011 2364 2223
1855 2229 1962 2148 2080 1834 1703 1847 2060 2043 2329 2269 2292 2437 2616 2380 2974 3071 3381 3174 2945 2262 1842 2242 3190 2713 2151 1645 1765 1694 1742 1583 1691 921 524 427 514 821 1127 1290 1465 1395 1226 1390 1374 1703 2195 2332 2616 2541 1949 1679 2387 2268 2108 981 781 520 582 630 679 2712 1909 1871 1406 1042 700 987 1699 1942 1771 1830 2040 2409 2170 1588 1445 3092 2581 2112 1630 1806 1970 2096 2195
1777 2151 2102 1777 1708 1723 2444 2596 2286 1979 2173 1765 1986 2518 2678 2780 2902 2693 2268 2214 1989 1887 2086 2697 3067 3100 2585 2002 1872 1496 1012 1967 2056 2041 970 1149 839 708 443 1042 1118 1560 1323 1453 1652 1472 2100 2562 2811 2655 2092 1558 1543 1640 1356 965 915 727 899 904 1669 1581 1636 1445 1301 930 875 1127 651 2331 2165 1954 1822 1771 2429 1986 1651 1408 1936 2833 2795 2192 2184 2282 2214
1126 1664 2160 2032 1944 1714 1838 2260 2297 2331 2467 2412 2455 2413 2555 2804 2908 2366 2011 2230 1923 1882 2208 2576 2674 2205 2511 2051 1973 1841 1665 1508 1925 1849 1991 1697 1113 1001 953 698 1395 1567 1486 1011 1316 1362 1964 1864 2582 2744 2537 2022 1748 1264 958 970 935 833 1938 1574 2059 1820 1229 839 1655 1585 1082 929 2251 1715 1216 1989 2032 2422 1730 1512 1906 1775 2012 1870 2359 2529 3052 2418 2657
1209 1554 1871 1947 2358 2554 1737 1601 1986 2390 2558 2547 2638 2606 2541 2387 2273 2162 1899 2262 1797 1695 1691 1773 1816 1643 2343 2408 2021 2097 2255 2597 2044 2195 2160 2322 1676 1628 1503 2122 873 1336 1332 1286 1406 1429 1668 1836 1983 2202 2394 1934 1600 1144 1115 1183 1220 1501 626 1030 1596 1754 1841 1666 1800 1772 1396 1083 1049 2283 2869 2453 1778 2294 2083 2086 2235 2085 1790 1989 1884 1683 2180 3105 3572
1866 1877 1708 1614 1836 2518 1835 1769 1891 2251 2379 2364 2321 2305 2406 2215 2133 2407 2246 2272 1955 1786 1728 1582 1502 1825 1880 3012 2585 2401 2156 1951 2014 2204 2139 2122 2265 1095 1326 1778 1299 1114 841 1183 1069 1007 1114 1611 1188 1733 2070 2381 2114 1643 1444 655 669 684 484 1314 2504 2176 1668 1618 1300 1332 1777 2885 1600 2442 2179 1683 2366 2514 2534 2122 1846 2727 2608 2372 2803 2577 2387 2475 2744
1414 1790 1788 1822 1862 1846 1870 1907 1743 1740 1613 1764 2326 2609 2664 2468 2426 2476 2341 2102 2041 1936 2009 1796 1760 1716 1962 2330 2861 2788 2352 2008 1717 3232 2123 2449 1342 1781 2267 1900 1575 1122 1540 1324 946 580 1194 1481 1770 1595 2006 1912 1573 1461 1142 849 693 554 720 1512 1988 2478 2442 2036 1356 1303 1230 2595 1612 1148 1682 980 3214 2213 2014 2803 3109 2798 2400 1769 1609 3703 2419 2082 1597
1305 1432 1409 1432 1819 1737 1570 1533 1413 1856 2094 2231 2420 2590 2838 2688 2479 2523 2273 2239 1934 1800 1934 2064 1884 2273 2507 2679 2553 2500 2107 2205 2970 2073 2407 1890 2200 1579 2548 2550 2341 1772 1485 1290 828 631 1083 1845 1648 1786 1770 1582 1641 1796 1581 1571 1436 1041 869 554 1205 2660 2681 2422 2253 1861 1477 1317 1285 976 790 740 1150 1808 1738 2592 2541 2678 2555 2047 2061 2075 2622 2712 3016
1262 1249 1046 1481 1824 1879 1540 1612 1766 2039 2617 2768 2422 2242 2156 2377 2182 1902 1626 1850 1933 1855 1938 2270 1810 2388 2752 2567 2438 2496 2601 2862 3097 2058 1852 2418 2167 2215 1593 1122 1750 1280 838 1378 1474 1003 756 1228 1877 1986 2022 1983 2228 2475 2774 1983 1652 1965 1419 1532 1308 2598 3017 3142 3040 2068 1999 1492 1484 1342 1145 1083 1183 1292 1620 1485 1361 1923 2461 2242 2419 2240 2063 1945 2835
1288 1052 1054 1165 1432 1704 1692 1740 1807 1803 1869 1888 2043 2005 1993 1662 1818 1650 1726 1464 1710 1978 1955 1938 2145 2469 2572 2487 2510 2735 2989 3085 3026 2709 2618 2202 1660 1437 1951 1322 919 1104 1334 1419 1818 1594 1369 1456 1707 1658 1745 2101 2798 2772 1846 1714 2850 2573 2516 2875 2269 3003 3201 2795 2730 2193 1947 1646 1533 1667 1673 1378 1296 973 777 726 1260 1046 870 1077 2018 1967 1805 1692 1803
1456 1287 821 917 990 1355 1570 1574 1427 1422 1643 1759 1904 1977 2385 2252 2174 1847 1602 1568 1787 1906 1883 1799 1673 2064 2160 2304 2563 2824 3147 3097 2751 2484 2124 2019 1868 2032 2346 1956 1696 1247 1594 1426 965 1525 1549 1429 1590 1362 1966 2394 2616 2595 2232 1702 2740 2410 3038 2512 2514 2067 3078 3024 2761 2588 1996 1818 2387 2122 2033 1523 1668 1226 899 804 1358 1427 1262 1512 2087 2071 2061 1982 1608
1045 1547 1585 1268 1215 1030 1031 1377 1219 1434 1333 1230 1088 1194 1676 2156 2459 2352 1469 1579 1680 1887 1812 1593 1465 2039 2219 2379 2564 2576 2828 2736 2596 2054 1818 1878 2021 2066 1716 1422 1181 1058 1154 1266 1072 1290 1370 1495 1231 967 2052 1997 2060 2373 2067 2573 3177 2904 2412 3215 2504 1984 2263 2616 2795 2645 2501 2288 2185 2171 2122 1933 1588 1525 1330 986 1289 1660 1096 1229 1238 1201 3341 2057 1689
797 969 997 1325 1022 1169 1061 1011 1568 1550 1602 1440 1415 1579 1651 1462 1618 1623 1802 1672 1787 1778 1863 1667 1577 1864 1814 1970 2101 2334 2096 2489 2415 2084 1890 1626 1693 1662 1658 1270 650 674 730 602 918 1084 1369 2065 1470 1376 1468 1810 1864 1777 1871 2248 3035 2629 2395 3077 2558 2831 2725 2911 2861 2326 2024 2194 1831 1686 1375 1128 1531 1777 1326 1182 1151 2156 1308 1342 1620 1885 2493 1836 1794
437 668 1030 1160 1146 1243 1608 1236 1400 1563 1726 1892 1847 1639 1470 1498 1926 1726 1774 1964 1550 1219 1388 1873 1720 1634 1735 1906 1842 2179 1883 2112 2257 1803 2205 1674 1492 2008 1280 1157 1164 682 678 1050 1300 789 1500 1556 1880 1872 1843 2158 2274 2037 2378 2919 3248 2818 2266 2658 3017 3672 3470 3116 3082 2590 2088 1902 1965 1957 1914 1607 1493 1385 1309 1172 1104 1128 1031 1280 1665 1771 2129 1946 2425
314 360 656 1004 1047 1152 993 1469 1783 1854 1898 1690 1757 1809 1981 1689 1527 1611 1720 1824 1702 2046 2082 1633 1708 1623 1465 1700 2062 2180 2314 2000 2173 2366 2419 1854 1820 2058 1562 1482 1038 925 1017 1061 1057 1042 1270 1682 1534 1512 1198 975 1672 1849 1944 2829 3027 2772 2578 2076 2497 3532 3351 2980 2546 2221 1960 1895 2013 1901 1963 2269 2370 2015 1842 1399 1191 1085 928 1182 1268 1806 2219 2316 2301
291 258 402 507 859 788 842 1045 1519 1840 1719 1586 1625 1630 1861 1987 1663 1785 1844 1660 1888 1909 1695 1836 1920 1622 1335 1573 1697 1902 1965 2169 1949 1863 2069 1852 1809 1937 1637 1285 1472 1490 1399 1319 1359 1139 1417 1656 1478 1473 971 1342 1846 1508 1730 2389 2862 2991 2830 2690 2753 3460 3295 3243 3401 3139 2354 1918 2248 2240 1970 2151 2350 1755 1609 1352 1214 982 1118 1357 844 1255 1622 2310 2074
208 314 356 317 420 633 843 891 1260 1803 1719 1784 1429 1409 1536 1636 1676 1822 1825 1558 1549 1850 1794 1980 1872 1463 1273 1667 1976 2152 2064 2541 2165 2032 2013 1765 1477 1656 1725 1514 1588 2267 1792 1678 1571 1064 1303 1500 1227 1028 1141 1124 1789 2206 2182 1552 2227 2613 2525 1990 2782 3238 3791 3524 3329 3008 2515 2106 2018 2353 2307 1687 2138 2302 1695 1450 1202 1025 1836 1384 1222 1967 1514 2104 1599
368 334 373 229 264 256 320 659 840 1269 2189 2421 1854 1696 1609 1785 1973 1788 1635 1729 1587 1650 1635 1593 1706 1584 1334 1456 1655 1749 1751 1729 1664 2583 2336 2110 2091 2154 1990 2009 2289 2279 2198 1930 1828 1219 1170 1502 1457 1279 1350 1344 1740 1936 1778 1648 1798 2695 2564 2274 2336 2296 3067 3484 3080 2758 2295 2335 2320 2477 2240 2266 2195 2041 1670 1536 1618 1389 1574 1476 1827 1427 1861 1504 2283
236 313 240 316 355 201 357 386 238 880 1180 1435 1800 2147 2016 1954 1919 1630 1416 1508 1541 1753 1619 1443 1537 1445 1359 1492 1315 1276 1509 1666 1823 2005 2478 2359 2346 2336 2592 3049 3192 2704 2130 2034 2069 1758 1205 1843 1970 1740 1606 1486 1643 2068 1765 1444 1958 2936 3299 3140 2678 2521 2364 2967 2818 2531 2266 2158 2376 2426 2018 2054 2171 2228 2092 1759 1715 1537 1875 1998 1965 1472 2203 1975 1618
463 501 394 484 537 676 530 438 601 666 855 1340 1694 2093 2405 2093 2007 1694 1464 1320 1298 1466 1601 1642 1443 1344 1949 1646 1626 1526 1506 1645 1771 1811 2218 2490 2297 2143 2092 2185 2640 3261 2988 2162 2503 2628 2590 2740 1921 1468 1379 1532 1592 1726 2189 2021 1986 2181 2758 2947 2920 2890 2612 2660 2548 2385 2586 2540 2517 2614 2551 2656 2626 2548 2287 1493 1332 1524 1547 1850 1629 1824 2222 1791 1433
585 708 622 708 763 701 555 481 499 258 899 1405 1720 1651 1715 2671 2258 1781 1560 1426 1032 1127 1290 1406 1385 1413 1354 1422 1616 1502 1438 1564 1810 1823 2138 2730 2848 2726 2460 2378 2538 2833 3338 3528 3464 2264 2751 3430 2603 1772 1300 1473 1798 1727 1887 2148 3094 3145 3500 2950 2752 2465 2060 1916 1928 1671 1437 1675 1333 1924 2137 2710 2696 2685 2270 1723 2110 2246 2080 2030 1758 2150 2996 2460 2460
436 458 516 564 589 522 588 743 785 769 625 1064 1396 1431 1551 1768 2586 2042 1400 1390 1463 1208 1235 1283 1512 1380 1380 1418 1536 1446 1420 1610 1918 2266 1994 2179 2452 2621 2374 2118 2390 2560 2720 2820 3377 2919 3026 2490 2843 2342 1682 1440 1458 1821 2591 4030 3166 3027 2436 2477 2229 1655 1717 1820 2118 1729 1034 964 1583 1680 1366 2065 2576 2550 2322 2292 2292 2359 2779 1686 1654 2232 2264 2632 2256
410 359 398 452 599 619 557 519 464 703 1028 1028 858 965 1394 1690 1706 2275 2113 1511 1293 1177 1266 1408 1334 1362 1447 1358 1219 1436 1443 1506 1623 1704 1762 1843 1923 2047 2180 2306 2644 2416 2545 2958 2947 3153 3242 2669 2583 2862 2134 1618 2941 3995 3708 3386 2735 2132 1870 1756 1868 1798 1986 1863 1804 1398 1468 1665 1892 1656 2046 2226 1839 1546 1858 2298 2653 2747 2488 1966 1785 1681 1836 2378 2274
178 250 266 325 433 642 727 736 753 624 582 671 991 1196 1180 1205 1429 1855 2324 1909 1200 1030 956 1066 1105 1012 1016 1130 1140 1154 1366 1608 1570 1647 1423 1358 1660 1810 1882 1923 1946 1880 1849 2765 2602 2505 2937 3078 2651 1939 1565 2545 2873 3324 3480 2944 2512 2091 1750 1752 1840 1681 1795 1807 1499 1452 1458 1820 2025 1805 1925 1907 1895 1697 1803 2350 2352 2639 2430 2594 2146 1917 1754 2339 2687
131 155 155 243 289 364 527 633 701 682 721 683 994 1174 1064 902 1282 1532 1814 1126 1060 1037 896 862 850 976 983 1002 1122 1053 1010 1176 1360 1404 1411 1337 1308 1471 1682 1602 1762 1803 2016 1970 2072 2034 1979 1884 1830 2416 2598 1953 2178 2627 2656 2415 2405 2320 1624 1312 1488 1768 1950 1818 1776 1501 1190 1330 1541 1466 1894 2092 2220 2033 1954 2111 2122 2253 2530 2108 1714 2057 2421 2387 2642
135 153 176 296 317 396 399 441 456 579 668 947 1038 1198 1042 1035 1064 1225 1644 1332 1013 1051 946 908 1112 1160 1241 1371 1386 1278 1180 1135 1242 1366 1279 1132 1043 1022 1210 1488 1638 1756 1987 2026 1818 1730 1653 1646 1495 1451 1492 1523 1437 2357 2439 1454 1489 1698 1943 1668 1591 1561 1516 1480 1781 1844 1525 1420 1682 2056 1630 1308 1377 1304 1516 1704 1732 1875 1867 1839 1975 2250 2224 2720 2663
100 144 233 275 258 295 288 234 367 452 538 715 962 1030 1099 1076 986 1052 1484 1884 1341 1193 975 851 986 1249 1172 1254 1340 1319 1124 1233 1276 1369 1477 1414 1372 1228 1127 1205 1438 1540 1649 1705 1609 1701 1775 1711 1623 1388 1668 1717 1504 1511 1682 1698 1605 1443 2063 1907 1711 1613 1640 1771 1849 1572 1217 1111 1614 1739 1503 1134 968 982 1175 1491 1642 1520 1412 2577 2752 2707 2588 2448 2464
123 116 196 286 285 355 465 420 466 381 484 625 533 669 930 1076 1019 1031 1674 1944 1793 1356 1157 1078 1147 1096 1204 1339 1569 1478 1322 1098 1150 1275 1357 1231 1147 1054 956 1117 1426 1608 1422 1200 1541 1658 1682 1915 1556 1664 1441 1266 1762 1626 1418 1508 1586 1504 1365 1845 1698 1545 1582 1544 1634 1490 1752 1892 2221 1623 1182 1187 1348 1365 1463 1523 1407 1673 2080 2540 2569 2195 2198 2159 2119
59 114 149 226 203 249 254 415 435 415 453 538 571 722 770 856 1016 1205 1574 1679 1739 1388 1125 986 1047 1050 1117 1507 1541 1439 1448 1319 1269 1391 1392 1356 1370 1464 1483 1380 1384 1204 1334 1353 1500 1648 1692 1652 1691 1730 1573 1924 1770 1514 1223 1335 1454 1629 1527 1360 1426 1440 1473 1367 1526 1450 1731 1908 1887 1487 972 952 798 1197 1591 1430 1354 1321 2227 2521 2455 2289 2200 2048 1856
58 200 176 248 326 372 360 372 358 383 378 497 582 578 702 761 783 1172 1883 1697 1750 1572 1354 1234 1195 1401 1533 1749 1473 1357 1619 1770 1922 1656 1469 1747 1508 1498 1398 1538 1495 1313 1315 1296 1283 1375 1666 1646 1463 1808 1897 1807 1437 1662 1737 1628 1406 1405 1360 1174 1086 1544 1738 1540 1617 1995 2283 1981 1352 1013 795 964 1324 1294 1274 1176 1372 1703 2099 2084 1818 1635 1611 1994 1789
92 159 253 310 185 240 222 419 522 341 377 423 558 628 622 673 738 1014 1831 1827 1707 1697 1662 1696 1688 1557 1526 1489 1378 1322 1410 1589 1525 1685 1593 1504 1692 1624 1602 1357 1078 909 852 918 949 1036 922 736 1279 1774 1516 1884 1786 1448 1286 1340 1364 1334 1345 1271 1090 1531 1467 1401 1702 1812 2074 1776 1397 1178 1011 1284 1244 1675 1970 1835 1841 1945 1716 1673 1579 1426 1526 1774 1811
80 76 154 308 350 291 256 516 446 351 382 598 659 696 674 687 708 778 1560 1975 1806 1483 1206 1251 1356 1547 1452 1311 1298 1470 1461 1525 1558 1399 1540 1396 1414 1434 1416 1110 770 810 918 823 714 576 555 828 893 1077 1285 1519 1974 1047 850 909 1029 1080 792 996 1009 1090 887 875 1316 1504 1737 1424 1023 940 1171 1420 1874 1593 1757 1334 1116 1168 1415 1570 1166 1081 1215 1545 2033
85 214 188 266 381 351 348 308 380 477 618 689 628 674 664 663 699 854 1170 1630 1720 1419 1204 1177 1138 1410 1628 1270 1224 1320 1291 1409 1421 1464 1564 1657 1615 1393 1235 925 720 812 910 1003 859 868 832 659 606 620 882 1085 1571 1122 665 577 645 700 720 596 753 837 741 714 1126 1461 1748 1512 1283 1686 1694 1682 1808 1218 1196 1109 981 769 1188 1396 1336 1092 884 1555 1993
118 149 312 298 436 481 523 409 460 458 594 552 540 673 658 637 660 856 1031 1297 1745 1558 1294 1228 1350 1470 1368 1660 1324 1444 1482 1473 1377 1381 1424 1456 1302 1175 1120 977 871 884 989 1070 1112 1002 1081 964 1009 785 1049 972 1084 822 512 375 364 416 436 429 718 823 720 962 872 1105 1318 1255 821 1390 1466 1532 1298 1031 1009 904 725 864 1004 846 839 956 967 1126 1824
196 157 158 238 410 439 464 451 506 590 484 446 287 538 604 708 737 780 882 1054 1508 1592 1500 1560 1536 1770 1356 1480 1696 1391 1346 1375 1337 1473 1677 1284 1165 1140 1033 1173 807 803 964 1066 1066 1235 1243 1075 1446 1352 761 889 826 579 500 469 476 332 244 610 645 925 823 981 1072 1320 1323 975 1044 1013 936 895 895 861 774 632 557 533 550 529 510 692 740 960 684
129 186 324 318 459 429 240 422 574 777 590 488 371 408 531 660 799 822 868 1060 1373 1460 1495 1444 1767 1582 1768 1572 1654 1432 1126 1248 1416 1360 1332 1193 996 841 696 708 685 776 863 751 973 1081 780 1328 1236 976 790 828 749 460 434 560 524 582 629 584 626 776 849 716 662 846 680 816 816 793 674 598 526 527 483 442 418 433 430 397 362 362 930 516 420
203 297 392 446 324 364 436 459 592 667 700 594 497 516 743 703 562 567 733 947 1236 1365 1314 1325 1607 1264 1275 1666 1622 1671 1480 1235 1260 1195 1169 1103 839 722 701 740 760 650 701 679 855 1419 1518 1299 902 923 777 788 543 541 532 526 553 505 473 421 623 1058 946 543 585 576 551 534 580 567 434 403 386 336 282 246 237 221 172 1 325 335 302 204 393
198 274 337 470 354 345 414 502 592 659 761 775 555 675 626 630 710 647 620 931 1055 1384 1461 1480 1752 1416 1336 1277 1211 1512 1449 1135 1061 1272 1308 1124 881 796 886 835 726 504 550 750 910 956 1247 1037 1049 974 668 541 578 474 435 471 429 411 355 370 374 398 398 587 417 488 675 827 663 313 268 260 268 246 222 153 89 0 0 37 0 103 271 248 0
177 233 241 490 457 429 459 535 562 708 817 938 976 865 856 809 800 842 1090 829 1122 1391 1466 1354 1437 1464 1516 1507 1257 1259 1416 1363 1254 1267 1237 1069 885 786 712 768 940 718 646 544 871 1039 1337 1184 1077 1056 794 501 384 427 464 483 462 456 455 447 444 431 403 319 286 510 364 602 362 297 237 214 188 69 30 0 0 0 0 0 0 0 0 0 8
246 297 448 426 461 497 561 680 796 784 789 1071 912 1032 1029 961 944 1075 1474 1115 1180 1138 1504 1497 1391 1286 1479 1584 1609 1482 1515 1365 983 950 937 921 789 763 781 852 879 821 612 504 657 1071 1428 1326 1174 1054 832 532 279 268 325 320 355 436 451 442 484 458 368 364 348 285 224 170 178 214 192 81 172 163 0 0 0 0 0 0 0 0 1 10 33
375 354 370 487 519 544 557 698 708 708 749 1062 1071 926 1095 1191 1088 1118 954 1031 1069 1172 1276 1347 1124 1093 1411 1572 1354 1112 1447 1635 1387 1086 953 915 890 873 771 639 934 1026 781 636 601 853 1250 1198 1120 1138 894 611 375 226 197 212 222 272 331 363 326 303 291 299 262 288 256 218 191 178 175 188 64 0 0 0 0 2 0 0 0 0 0 7 78
484 407 492 570 603 612 659 694 749 735 645 633 712 936 1064 1130 1042 822 830 1066 1134 1225 1332 1348 1270 1024 1035 1490 1349 855 825 950 1253 1060 1028 1000 983 930 848 1009 898 878 922 684 591 717 1123 1180 1258 1180 1009 806 502 391 205 135 134 172 196 186 175 170 170 173 170 174 171 173 142 38 0 0 0 0 4 21 13 46 0 0 0 0 1 17 284
573 566 590 641 850 680 664 728 772 789 730 615 718 882 948 987 897 1043 880 1238 1266 1257 1351 1322 1062 818 965 1208 1391 1083 894 990 1081 1198 1227 1046 930 892 941 1016 942 956 1010 772 571 763 706 908 1300 1130 1108 865 672 445 341 194 133 143 123 89 68 14 1 3 5 6 12 5 4 0 0 2 7 3 0 0 50 109 5 6 5 13 9 48 74
869 862 956 944 1020 912 797 758 740 721 803 890 882 935 1015 1022 855 885 1109 1049 1078 1173 1121 1360 1237 1160 1500 1513 1239 1073 967 906 1080 1713 1727 1511 1327 1151 1180 916 862 759 838 822 804 686 795 602 610 1221 1143 850 839 589 449 253 159 120 131 58 32 59 40 24 66 48 71 32 13 7 11 11 16 13 12 5 27 125 88 47 59 104 90 135 34
877 878 935 842 844 831 722 810 803 827 852 885 810 940 1034 995 876 938 1084 1218 1050 1167 1116 1030 1077 828 1256 919 1018 985 772 695 897 1114 1018 1049 1089 812 682 703 788 964 1133 1127 981 758 676 652 603 753 1185 1090 883 838 422 222 99 39 94 93 98 8 8 34 58 23 71 71 45 7 11 6 34 46 25 31 59 94 98 111 155 159 180 58 26
995 952 793 651 692 817 808 706 693 739 913 739 610 970 1222 989 883 857 1146 1110 1115 1120 1114 1001 800 920 1505 1287 1043 838 987 1029 1214 1007 1080 1096 1083 945 886 942 900 839 937 1038 848 717 691 629 661 739 516 690 491 587 459 283 146 0 0 0 32 74 26 28 27 19 125 78 43 53 27 42 49 48 60 54 86 124 162 193 193 232 166 93 16
Wind_Speed
9 7 20 18 10 6 5 4 8 12 12 13 17 20 16 14 15 18 16 17 17 15 14 11 9 8 7 7 8 8 6 7 6 4 5 6 5 11 11 8 9 7 6 6 5 3 3 4 7 5 5 2 1 2 2 3 7 7 5 7 7 5 4 2 5 3 4 3 2 3 8 10 10 10 11 12 11 12 11 13 11 9 11 13 11
6 12 16 11 8 4 6 5 10 10 12 13 14 18 16 15 14 16 17 18 17 17 14 11 9 8 8 7 8 9 8 7 7 5 6 5 6 12 13 9 10 9 8 7 6 6 4 4 4 8 6 4 2 1 3 3 2 3 5 4 6 6 3 3 3 4 3 3 2 6 7 11 10 11 11 11 11 9 9 12 12 12 11 11 11
9 17 16 15 11 8 4 8 10 11 9 10 13 15 15 14 16 17 17 18 17 16 14 11 9 7 7 7 6 8 8 7 6 7 7 7 6 10 12 11 12 10 9 8 7 7 6 5 5 9 6 4 5 4 4 3 3 5 7 8 7 7 6 3 1 2 4 4 5 5 6 6 7 7 8 10 12 12 10 10 10 13 13 12 11
18 19 22 18 11 10 7 7 11 11 8 10 11 12 13 13 15 13 15 19 18 17 15 11 9 7 8 12 3 7 9 7 5 6 7 4 9 9 13 12 11 10 10 9 8 8 8 7 5 7 10 6 4 6 5 4 5 7 6 9 9 7 5 4 3 2 3 8 2 4 4 5 7 8 7 11 9 10 11 10 12 13 11 12 11
22 21 21 19 13 13 13 10 13 12 11 11 11 11 12 13 13 12 14 18 21 17 16 14 11 11 10 11 9 9 10 8 7 6 7 9 8 10 11 11 10 9 10 9 8 9 8 8 7 5 7 9 6 6 6 4 6 6 9 9 9 8 6 4 3 2 4 4 6 4 4 5 6 5 9 10 6 7 9 11 11 11 10 9 12
23 29 23 20 20 17 13 10 11 11 9 10 7 6 8 11 12 11 14 17 18 16 17 17 13 13 11 11 10 10 10 9 9 9 9 10 7 10 10 11 10 8 10 8 8 7 8 7 7 5 5 9 6 5 6 8 6 6 5 7 7 10 9 5 2 3 1 7 5 4 3 4 5 4 7 8 8 9 9 7 8 9 7 9 12
12 18 25 21 22 26 27 22 20 18 15 12 10 7 8 10 11 13 17 19 19 19 18 16 16 13 12 10 11 11 11 12 13 11 10 12 10 10 12 12 11 8 7 7 7 6 7 8 7 5 4 5 7 5 5 5 6 6 6 6 6 8 11 7 4 3 1 1 5 4 4 3 4 3 4 5 7 5 7 5 8 6 6 9 10
9 9 12 19 21 22 28 30 29 26 19 15 13 11 10 11 11 14 16 15 16 16 14 14 16 15 14 13 12 11 10 13 13 12 11 14 12 9 11 10 11 9 6 6 6 6 6 8 7 6 5 3 5 6 5 5 4 4 6 6 8 8 7 6 3 2 3 1 2 5 3 5 3 2 3 3 3 6 7 6 5 6 8 8 7
10 13 16 13 17 26 25 24 24 23 19 17 15 12 11 10 10 13 14 14 16 15 15 16 18 16 14 14 14 13 12 12 13 13 15 15 11 11 10 9 10 9 7 5 5 5 6 6 7 6 5 4 3 3 3 4 5 6 7 9 8 7 7 5 4 3 2 2 5 0 2 4 4 4 5 3 2 4 7 6 6 4 5 7 8
20 17 15 11 12 17 16 14 16 19 20 19 17 14 12 10 9 12 13 14 17 16 16 17 17 14 12 14 13 14 13 17 15 14 12 14 12 11 11 12 11 10 9 6 7 5 5 5 5 5 4 3 3 2 3 4 5 6 8 8 7 5 6 6 5 5 4 2 3 6 3 2 1 1 3 4 1 3 5 4 5 6 7 7 7
14 11 12 14 12 11 13 14 15 15 16 17 16 13 12 12 12 12 14 15 16 14 13 13 15 13 12 13 14 15 14 14 13 12 12 12 13 12 14 14 14 13 10 9 5 5 4 6 4 4 3 4 4 3 4 4 4 7 7 8 9 8 6 5 4 3 3 6 2 6 5 4 4 2 2 1 1 2 3 4 4 5 5 9 6
11 11 9 12 12 9 10 12 12 12 11 11 12 13 12 13 13 14 14 16 14 11 10 10 14 14 11 12 14 17 17 15 12 18 18 16 12 14 15 15 14 13 13 11 7 4 6 6 5 3 5 4 4 5 4 4 5 6 8 9 10 9 6 6 4 3 2 4 2 3 5 3 6 4 2 4 2 1 1 3 4 2 2 5 6
9 8 12 11 11 9 8 12 16 15 14 13 14 12 10 6 7 13 14 15 15 11 8 10 12 12 13 15 15 17 17 14 16 17 18 17 16 14 15 15 15 13 14 10 8 5 7 8 6 6 6 6 6 8 8 7 8 8 8 6 9 10 9 6 6 4 3 2 2 2 1 2 3 4 2 3 3 4 4 2 3 3 2 3 4
16 7 9 13 11 8 8 8 8 9 10 11 14 14 8 4 4 8 14 11 9 9 8 11 11 11 14 17 17 17 16 15 16 17 18 17 17 18 15 13 14 11 9 12 11 6 5 7 8 8 8 8 9 8 9 9 8 9 8 7 9 10 9 8 6 4 4 3 2 1 1 2 3 4 3 3 2 4 3 4 2 1 1 1 0
29 22 12 9 13 13 11 12 11 10 10 13 19 25 23 19 16 12 7 12 10 9 9 9 10 10 14 16 16 16 16 18 19 19 20 19 17 15 15 14 12 10 9 11 11 8 7 10 9 8 7 7 9 10 9 11 10 9 10 10 10 13 11 7 7 4 3 3 3 3 3 2 3 3 3 4 5 2 1 1 4 2 3 2 1
34 40 38 31 22 16 17 18 18 16 21 18 17 20 24 26 24 12 4 4 8 5 5 8 9 12 11 13 12 15 19 22 22 22 21 21 18 16 16 17 16 13 11 10 9 11 9 7 7 6 9 9 10 11 11 10 10 9 10 9 9 8 10 8 6 6 5 4 5 5 4 2 4 3 2 3 4 5 4 4 4 3 3 3 5
25 25 26 32 40 40 22 18 16 15 17 15 14 21 22 22 29 28 20 15 14 11 6 5 6 8 11 12 12 14 17 21 23 22 20 21 19 18 17 16 17 16 12 9 8 11 9 9 8 7 9 8 7 9 9 9 10 10 9 9 8 7 9 9 8 7 7 6 6 4 4 4 4 4 3 3 5 7 6 5 4 3 10 9 6
25 25 24 26 28 36 45 31 25 19 15 14 9 16 22 24 28 27 27 27 22 12 7 3 9 9 11 11 10 13 13 18 22 23 22 21 20 20 19 16 15 16 13 9 8 9 11 9 9 6 7 8 5 7 8 8 9 9 9 10 9 8 8 9 9 7 7 8 5 5 5 5 6 6 5 3 7 10 8 6 7 8 12 11 9
27 27 28 28 28 29 35 41 42 37 29 27 26 27 26 24 23 26 24 26 27 22 14 7 6 9 10 11 11 13 14 15 19 20 21 19 18 21 20 14 17 18 13 9 11 8 12 10 10 9 10 11 9 7 9 9 9 9 8 10 10 9 8 9 8 8 7 7 8 7 7 6 6 5 6 5 6 8 8 7 9 11 11 11 11
26 28 30 32 31 30 33 34 36 35 33 31 29 28 30 31 30 29 22 22 25 22 18 10 7 9 10 14 16 16 16 14 14 18 18 17 16 20 21 15 15 18 16 10 9 9 11 9 10 10 7 7 9 9 8 10 10 10 10 9 9 10 10 9 7 7 8 8 8 7 7 7 7 7 6 5 6 7 7 8 10 13 12 15 16
26 27 29 33 33 32 34 33 35 34 33 33 34 30 30 28 28 27 24 20 23 20 15 12 15 11 11 13 16 17 14 14 12 13 17 16 17 18 20 18 15 15 16 11 10 10 10 12 12 10 6 8 10 10 10 12 11 11 12 11 10 12 11 10 9 7 7 7 8 7 7 7 9 6 6 6 7 7 12 17 17 10 13 16 15
27 26 26 29 31 31 31 32 33 34 33 34 34 34 32 30 26 27 25 20 17 19 16 11 13 14 12 11 13 17 16 15 14 13 14 13 13 15 18 18 13 14 15 13 12 12 11 10 11 11 8 6 9 10 11 12 12 13 12 10 10 11 14 11 11 9 9 8 7 7 7 6 8 7 6 6 8 11 16 15 16 14 11 15 16
28 27 27 28 28 29 31 30 29 31 33 34 35 32 31 32 30 27 25 20 16 17 17 12 13 12 12 14 14 14 15 15 14 15 12 15 17 16 16 15 16 17 18 15 13 13 13 12 11 11 11 9 10 10 11 11 11 15 15 12 12 12 14 13 12 10 9 9 7 7 6 8 8 7 8 8 9 11 15 17 16 11 9 15 18
30 31 30 29 28 28 30 30 30 30 32 34 34 33 30 28 28 29 29 25 19 17 18 15 14 11 9 11 13 13 10 14 15 15 14 16 20 20 19 19 19 19 18 18 16 16 15 13 14 13 11 10 12 12 13 11 9 14 15 14 13 14 15 15 14 14 12 11 9 8 7 8 9 10 9 10 12 13 15 18 14 11 13 17 18
32 32 31 31 30 30 31 31 30 31 33 35 36 33 32 30 26 25 28 28 23 18 15 13 13 10 7 6 9 11 11 14 14 16 16 17 17 19 19 19 21 21 21 20 21 22 21 17 13 13 14 13 11 12 12 11 9 11 13 15 15 16 17 17 16 17 17 16 12 11 10 10 11 11 9 12 10 10 17 17 14 14 16 17 17
32 31 31 31 31 31 32 32 32 33 33 34 37 36 34 31 30 27 26 27 25 20 15 13 17 16 11 8 6 7 7 9 11 13 12 13 15 18 21 23 24 24 24 25 29 27 22 19 16 15 16 17 15 14 14 12 16 20 20 20 19 20 20 19 17 20 20 22 19 11 13 13 12 11 10 12 12 14 22 16 15 15 16 17 18
31 31 32 32 30 30 30 31 32 33 34 35 36 37 34 32 31 32 28 28 28 25 19 17 22 20 12 11 12 8 7 7 8 11 15 19 18 19 22 24 26 24 23 22 25 26 24 22 22 21 19 20 18 16 18 24 24 22 21 19 19 20 21 20 19 19 19 19 18 20 17 14 14 13 13 14 12 15 20 20 16 15 15 15 17
34 31 31 30 29 28 28 28 30 31 32 34 35 35 35 32 34 35 33 31 32 31 27 23 25 27 20 15 15 15 14 14 13 15 16 12 14 20 21 24 25 23 22 23 26 28 27 26 25 25 24 21 21 25 26 23 24 22 22 21 21 22 24 22 20 21 21 22 20 19 20 22 22 16 14 13 14 16 18 17 17 18 13 14 17
31 30 31 31 30 28 24 24 26 27 29 30 30 32 33 34 35 37 39 39 33 32 32 29 28 30 24 20 18 13 16 16 17 16 14 15 15 13 16 19 23 25 26 28 31 30 28 28 28 27 24 27 28 23 24 24 24 24 23 23 23 23 24 23 22 23 22 22 24 23 20 19 18 16 10 11 13 15 18 17 19 18 14 15 18
30 30 30 29 27 25 23 22 22 23 25 26 26 27 29 31 35 38 43 42 34 30 31 32 31 32 28 24 20 15 11 10 12 10 12 13 14 14 14 16 19 23 25 29 32 30 28 28 27 27 32 31 25 25 24 23 26 27 26 25 25 25 25 24 24 25 24 23 23 25 22 16 14 16 16 12 12 13 15 19 19 16 16 16 18
31 31 30 27 24 23 22 21 21 21 23 25 24 24 24 27 32 36 41 40 36 32 32 35 34 30 27 24 21 18 16 14 13 13 12 11 12 15 16 13 12 14 20 25 29 29 29 29 27 28 29 29 24 24 24 25 26 27 28 28 26 26 26 25 24 25 25 25 23 24 25 21 21 20 19 17 16 13 13 12 11 13 16 17 18
31 30 28 25 22 21 21 20 21 21 21 23 25 25 23 25 28 31 34 37 38 36 34 35 34 29 26 24 24 22 21 19 17 13 14 16 15 15 17 17 15 14 17 21 23 26 28 29 33 34 27 22 23 24 26 26 27 29 30 31 29 28 27 26 25 26 26 25 24 25 25 24 25 26 24 20 16 12 10 12 13 12 12 11 13
31 28 25 23 21 21 20 20 20 21 22 24 26 25 24 25 27 29 30 32 36 38 38 35 35 33 29 27 27 24 22 21 18 13 13 15 13 11 14 15 15 16 19 19 18 22 25 27 32 33 25 21 25 25 29 28 28 31 31 31 31 30 29 27 29 28 27 26 28 28 24 22 25 21 20 19 18 16 13 13 12 11 10 11 14
nan 25 23 22 22 21 19 19 20 21 23 24 24 25 25 25 26 28 27 29 33 37 38 37 35 33 30 29 29 28 24 20 19 18 18 17 15 11 12 17 17 16 15 16 17 19 22 23 27 30 28 27 27 28 26 27 29 31 31 29 30 30 30 28 30 29 28 29 29 27 25 23 25 24 22 20 19 15 18 18 18 17 16 12 13
nan 24 22 21 22 20 19 18 19 20 21 22 24 25 26 26 26 25 25 28 30 33 36 36 34 33 32 31 29 28 25 22 19 19 20 20 21 18 18 19 23 19 14 14 18 19 20 22 24 26 28 30 30 32 28 29 32 34 33 30 30 30 32 31 32 31 30 31 29 27 26 25 23 22 21 20 19 19 20 19 20 18 16 18 18
nan 22 21 20 18 17 16 18 19 17 20 21 22 23 24 26 25 24 24 28 28 30 33 35 33 34 35 33 29 27 25 24 20 18 19 20 21 24 24 22 21 20 20 17 14 19 23 22 23 27 29 31 33 37 33 34 35 35 35 33 31 30 32 33 35 32 31 33 31 29 28 26 22 21 20 21 22 23 21 21 19 17 16 18 17
nan nan 17 18 17 17 17 18 17 17 18 20 21 21 22 24 26 25 24 26 27 29 31 35 37 38 37 32 27 25 26 25 24 21 20 19 18 24 25 24 21 21 19 19 16 16 16 19 20 24 26 30 34 36 36 36 35 33 35 35 33 37 38 33 31 30 31 33 32 28 27 26 24 26 31 31 28 23 22 20 18 15 16 17 18
nan 18 16 17 18 20 19 18 15 15 18 20 21 21 21 23 25 25 24 24 27 29 30 33 36 38 36 33 27 24 23 24 24 23 21 20 22 25 26 25 23 22 21 20 17 17 20 21 19 17 21 26 31 35 35 35 36 40 37 35 34 39 34 29 29 30 32 32 31 27 26 26 27 32 35 33 28 24 21 19 17 16 15 15 15
18 18 18 18 20 18 16 16 17 16 19 20 20 20 20 21 25 26 24 24 26 27 27 29 32 35 34 33 29 26 26 24 23 22 21 21 22 22 23 25 23 21 21 22 20 19 19 21 20 19 16 23 28 33 32 31 30 33 30 30 32 37 32 31 29 31 32 33 33 29 25 26 29 34 36 34 29 24 21 19 18 18 16 15 19
17 18 18 17 14 13 15 16 17 19 19 18 18 20 19 20 23 24 23 23 25 26 26 27 28 32 33 33 31 29 26 25 24 21 22 23 22 21 21 23 24 24 23 22 20 20 21 22 23 22 22 22 25 29 26 25 26 24 22 26 32 35 33 31 30 33 38 37 35 32 33 36 38 36 35 33 31 28 24 21 20 19 16 17 19
16 16 15 14 14 13 13 15 17 18 17 17 18 17 19 19 20 20 21 23 26 26 25 25 28 32 34 31 28 28 26 25 24 22 21 22 23 21 21 24 24 27 26 19 16 20 20 21 24 23 21 19 20 23 23 21 22 22 24 26 30 33 33 31 30 29 32 37 35 34 38 38 39 38 35 31 29 27 22 19 18 17 20 19 17
13 14 14 15 14 12 11 11 15 15 16 17 17 17 19 19 17 17 18 21 24 27 26 25 27 31 31 31 28 27 26 26 25 22 19 20 21 20 21 24 25 26 23 12 9 17 18 21 21 20 19 19 16 18 21 20 22 25 27 30 27 29 29 31 29 21 23 30 34 37 36 34 36 35 32 28 27 24 21 nan 21 22 18 18 18
11 14 16 16 15 12 12 13 15 16 18 19 17 16 17 18 18 18 19 22 23 24 24 24 26 28 31 32 29 26 26 26 24 21 19 19 20 20 18 22 25 25 23 15 8 13 17 16 20 23 22 20 18 17 21 21 21 24 27 31 32 30 30 29 27 22 26 29 32 35 35 33 32 32 28 25 nan nan nan nan nan 16 15 15 nan
12 13 16 18 16 14 13 14 15 19 22 23 21 19 18 19 19 23 27 23 19 20 22 23 25 26 29 31 29 26 26 26 24 21 20 19 19 20 21 22 22 20 19 12 7 9 14 14 17 21 22 21 19 17 18 21 21 22 24 27 29 31 31 29 27 27 27 27 30 30 29 31 31 nan nan nan nan nan nan nan nan nan nan nan nan
15 17 16 17 17 16 16 16 18 19 22 24 24 20 18 19 22 25 25 22 19 19 20 21 22 24 28 31 30 26 24 24 23 21 19 19 19 20 23 25 24 20 17 13 5 6 9 11 14 18 21 21 20 18 17 18 21 23 24 25 26 28 29 29 27 28 30 31 32 33 31 nan 28 26 nan nan nan nan nan nan nan nan nan nan nan
15 15 16 18 19 20 20 20 19 19 20 23 22 21 19 21 22 23 23 23 19 16 16 19 21 22 25 29 29 28 26 25 23 21 19 20 20 19 22 24 23 18 15 16 10 7 4 6 11 15 17 19 18 17 17 17 17 19 19 21 24 24 26 29 30 28 30 32 32 31 28 26 nan nan nan nan nan nan nan nan nan nan nan nan nan
16 16 18 21 22 23 22 21 18 18 18 17 17 19 20 22 21 20 20 21 19 16 14 17 19 21 24 29 32 27 27 27 25 21 20 20 20 17 17 20 22 20 16 16 14 7 2 4 8 11 12 13 13 12 14 14 14 16 17 17 18 20 22 24 24 23 24 25 24 nan nan nan nan nan nan nan nan nan nan nan nan nan nan nan 11
17 19 23 24 27 25 20 17 17 17 17 14 12 15 19 20 20 19 18 19 17 15 14 16 19 22 26 30 30 25 24 26 24 21 20 20 19 17 15 16 20 19 15 13 13 5 5 2 4 7 8 8 7 6 8 10 10 11 12 nan nan nan nan nan nan nan nan nan nan nan nan nan nan nan nan nan nan 9 nan nan nan nan nan nan nan
20 23 26 26 25 20 16 13 13 16 17 14 10 12 16 19 19 19 20 17 15 14 14 16 19 21 24 28 30 28 25 25 26 23 22 23 21 16 16 18 19 17 13 11 14 10 3 7 4 3 6 5 4 3 4 8 8 9 9 nan nan nan nan nan nan nan nan nan nan nan nan nan nan nan nan nan nan 8 nan nan nan 10 nan 16 nan
23 24 22 20 19 18 14 12 13 15 16 14 10 11 15 18 19 19 18 17 15 14 14 16 19 22 27 31 32 29 26 26 26 26 23 25 29 27 23 17 16 18 18 17 16 14 13 11 10 9 5 3 4 4 9 11 nan nan nan nan nan nan nan nan nan nan nan nan nan nan nan nan nan nan nan nan nan nan nan 10 11 13 13 nan nan
22 20 17 14 14 14 13 12 13 15 18 17 11 11 15 16 18 19 18 15 15 14 13 15 20 23 26 30 30 29 28 26 25 24 23 23 24 27 27 27 22 20 22 22 23 22 19 16 12 10 11 17 8 18 17 11 9 nan nan nan nan nan nan nan nan nan 10 nan nan nan nan nan nan nan nan nan nan 10 12 12 12 13 12 nan nan
Wind_Direction
299 263 265 275 299 3 335 261 277 266 261 254 247 259 257 252 254 258 262 276 283 281 285 292 289 291 293 301 288 289 290 294 293 289 274 274 265 276 280 269 263 272 275 290 289 285 264 269 285 290 299 308 347 5 58 317 336 2 21 357 10 358 50 9 68 52 75 24 74 68 46 36 26 48 64 76 93 104 116 119 122 116 117 109 107
292 278 271 331 359 280 271 247 263 265 255 251 249 249 255 255 249 252 261 263 276 284 284 291 293 295 297 300 301 295 288 282 288 288 285 277 253 262 280 273 269 271 273 283 289 292 281 275 280 295 300 305 336 276 290 284 341 356 359 331 347 348 345 60 302 32 320 346 114 103 83 58 26 43 55 52 62 75 101 109 109 108 96 97 106
336 306 320 14 359 329 296 264 273 262 260 268 262 258 256 252 250 238 256 268 275 278 273 276 279 280 289 276 284 281 288 295 305 297 295 301 300 276 279 265 271 272 276 282 284 299 294 285 285 288 294 295 284 272 269 321 342 3 350 342 333 329 339 8 358 75 336 352 11 37 64 69 58 64 61 52 39 33 44 63 74 88 91 91 92
345 341 346 358 3 325 330 303 287 304 319 301 293 286 275 265 264 263 257 262 267 269 270 274 271 255 255 257 229 254 250 256 256 266 277 285 296 293 274 272 279 286 290 292 286 281 283 285 285 294 309 309 295 292 303 341 333 334 342 340 317 304 316 323 318 66 37 331 20 27 34 60 62 75 86 72 50 29 33 48 57 68 79 95 95
346 2 13 345 348 348 350 347 332 358 345 331 316 308 295 298 284 286 277 272 261 256 266 260 253 253 229 244 224 237 244 225 235 252 248 244 253 275 281 278 279 282 286 290 283 276 278 278 276 278 288 298 306 304 306 346 349 344 344 310 311 319 326 323 322 61 295 343 337 18 40 54 61 62 86 81 64 44 56 46 57 62 76 97 103
7 4 15 2 349 345 359 5 13 7 5 334 316 282 289 287 288 281 265 259 263 265 262 263 256 249 251 252 247 238 240 236 238 239 246 255 245 264 276 287 287 279 274 281 291 277 283 284 278 275 279 297 316 315 322 335 343 344 326 322 319 332 325 308 350 293 72 330 353 5 34 28 37 40 62 75 67 46 41 23 42 50 52 77 90
51 21 6 10 5 356 3 8 20 22 9 345 343 335 320 298 294 281 260 251 249 248 245 246 260 255 260 259 248 235 234 233 228 230 243 252 245 255 260 273 278 284 286 282 282 278 273 282 277 273 277 280 298 308 312 347 350 348 327 311 315 282 290 308 333 2 282 305 310 348 335 322 354 21 54 77 102 94 78 50 100 81 50 62 77
52 54 51 20 19 19 11 4 8 13 12 2 358 343 327 319 295 280 275 272 262 256 254 251 260 258 256 253 245 237 244 238 236 223 224 239 253 251 263 265 277 271 265 266 276 276 258 273 277 278 276 282 281 312 332 337 322 302 295 299 282 285 286 303 311 341 328 327 342 324 332 308 357 50 8 42 74 106 108 108 92 82 94 77 71
66 21 24 33 37 34 17 8 11 9 360 2 360 354 341 324 301 288 293 291 276 262 253 251 249 246 254 253 238 237 238 246 243 230 217 223 235 239 241 267 264 270 260 257 265 263 269 255 272 271 269 275 258 310 313 328 316 309 304 282 283 296 303 307 315 330 341 339 283 347 314 320 357 17 14 15 56 87 101 100 100 88 69 83 62
29 27 358 14 43 47 29 0 14 12 0 2 359 354 352 331 310 297 300 297 289 276 264 252 238 245 248 246 237 236 240 245 240 239 228 219 218 228 229 226 254 262 263 242 253 261 250 261 263 290 292 305 295 296 292 286 291 295 285 283 290 295 301 321 327 328 347 335 320 317 285 276 112 327 5 350 36 70 90 106 103 89 101 103 87
7 6 1 358 17 37 18 11 25 19 3 357 353 356 354 355 338 317 310 301 297 282 270 277 263 248 247 241 242 240 240 247 253 253 247 231 217 223 228 224 226 251 255 257 242 269 244 243 266 278 291 276 262 252 257 265 288 292 299 304 310 312 305 317 321 289 270 262 319 306 328 336 323 357 331 340 43 24 43 78 67 50 66 100 84
357 344 359 0 3 9 352 344 14 27 10 0 352 348 356 354 340 337 327 318 308 288 283 290 278 271 255 249 247 247 246 242 248 253 238 223 231 231 231 234 231 231 244 247 251 248 245 233 248 241 253 261 265 264 257 269 272 271 288 299 295 295 306 310 310 283 288 290 340 348 330 350 290 299 343 310 340 327 355 87 95 44 90 66 88
331 340 335 351 357 1 9 352 357 3 356 348 342 344 351 317 321 339 336 336 324 308 298 296 274 272 271 260 251 251 251 239 239 252 248 236 223 237 244 235 239 229 239 232 239 240 238 243 242 247 242 254 251 258 268 256 242 251 260 284 284 293 299 294 287 297 296 249 274 312 298 285 281 304 331 301 334 330 330 11 86 71 45 101 87
311 314 325 337 342 348 353 359 350 337 346 345 321 306 285 283 288 342 349 339 329 316 317 291 278 277 269 262 255 250 247 241 242 251 255 246 239 228 232 249 245 244 233 241 237 224 230 251 247 240 239 236 252 252 253 258 254 243 252 256 274 281 279 288 285 286 265 270 276 262 301 301 299 308 305 305 313 317 332 5 16 275 138 137 80
308 303 327 344 335 344 341 331 329 330 336 339 335 327 332 342 351 16 1 331 348 336 307 288 263 263 261 261 258 250 242 241 243 244 246 249 243 237 233 235 255 251 239 236 247 244 226 230 249 243 245 244 242 254 259 252 250 255 243 243 242 263 263 268 280 289 278 269 247 249 229 224 235 213 246 288 318 334 269 262 273 224 220 233 197
313 327 340 342 334 341 338 335 329 334 341 334 324 323 328 326 311 306 6 335 332 334 309 286 252 244 254 258 257 248 241 241 242 240 241 243 242 237 237 234 224 234 247 236 242 252 243 238 256 263 247 238 237 247 252 256 264 261 261 254 256 258 272 275 268 258 248 234 235 240 255 241 240 241 250 268 257 246 246 243 260 290 274 219 216
295 298 305 310 319 321 318 326 314 316 320 317 315 315 314 314 317 334 346 353 0 354 345 280 252 257 249 250 250 249 246 247 246 247 246 247 244 236 231 233 232 220 216 238 229 244 246 246 234 242 254 246 237 249 258 260 256 264 270 268 268 264 262 269 270 271 265 271 283 291 275 262 258 247 244 268 279 271 265 258 284 277 265 257 244
291 292 294 295 293 298 316 322 311 302 320 315 305 297 309 322 322 329 349 346 332 4 350 223 195 214 238 239 241 240 239 244 249 251 250 251 252 251 243 233 241 238 219 225 240 250 254 255 253 251 261 273 267 256 264 268 261 259 266 269 266 260 259 259 268 277 277 275 278 268 270 277 281 278 265 264 280 282 278 272 262 253 269 272 264
298 297 297 294 291 288 291 302 314 327 328 329 322 316 314 324 324 328 351 349 340 354 354 296 228 206 217 221 215 224 230 237 245 251 253 255 255 259 263 255 246 250 235 217 238 237 244 257 249 244 241 255 259 253 257 261 265 262 266 259 262 262 257 253 253 263 266 266 268 272 266 260 249 242 254 268 268 263 275 283 282 271 267 265 263
292 294 296 292 289 287 287 288 290 297 304 304 300 301 307 317 318 321 338 342 343 348 334 320 244 216 208 202 202 209 221 226 237 251 249 244 242 251 262 254 246 255 258 229 245 252 257 257 259 248 240 253 274 271 264 271 265 261 259 261 267 270 264 261 259 270 271 273 276 282 278 270 267 259 253 250 253 255 261 270 273 275 266 264 265
287 286 286 285 283 282 283 283 289 293 296 297 297 295 295 302 310 317 324 334 341 338 328 317 283 238 192 189 191 197 206 212 216 236 238 233 227 235 244 238 232 253 266 257 252 257 246 259 267 257 258 248 246 263 268 263 263 262 262 258 256 268 273 267 265 264 262 264 271 271 265 256 256 255 262 259 256 258 252 249 245 243 266 268 272
295 287 283 280 278 276 274 274 282 288 289 290 289 290 293 291 297 311 313 310 311 318 323 315 277 259 228 209 197 200 202 208 202 218 234 240 244 248 251 248 238 245 259 255 253 258 258 259 259 270 269 261 257 250 250 259 270 273 274 270 266 260 266 268 262 258 259 261 263 267 268 264 259 256 248 258 260 258 267 263 267 256 242 266 272
301 298 293 289 285 283 280 276 271 274 282 286 284 282 285 292 295 297 297 291 291 297 293 296 296 267 248 246 230 206 201 201 198 214 228 231 228 235 251 249 239 238 242 242 245 252 252 261 266 259 250 251 254 259 258 246 249 272 282 287 282 277 275 279 276 266 264 264 265 265 265 260 258 253 258 258 266 267 265 268 273 268 270 268 273
299 297 295 292 290 286 284 280 279 274 268 268 270 277 275 280 287 290 292 292 288 285 300 305 301 285 259 252 253 251 231 219 212 216 220 225 225 224 228 228 235 240 239 239 240 242 242 248 261 264 262 246 245 251 256 262 264 277 290 294 288 282 282 286 285 281 278 271 266 259 254 257 259 254 251 256 256 260 264 263 256 279 271 268 274
302 298 296 292 289 286 283 282 279 274 271 269 267 268 274 272 272 273 281 283 279 280 286 290 288 272 262 248 243 254 256 247 236 223 218 228 226 233 240 236 232 240 241 239 239 235 230 229 246 262 261 257 251 249 255 264 272 281 284 278 273 273 271 275 280 278 275 269 264 259 255 248 248 247 246 248 255 272 268 266 270 263 265 271 273
302 301 299 295 294 291 285 281 279 274 270 267 266 264 263 267 267 262 263 270 272 270 270 271 270 255 231 202 211 240 255 264 258 238 230 234 234 235 239 236 237 237 236 234 241 239 239 235 234 241 249 253 253 247 249 257 258 250 249 254 258 255 253 252 256 263 273 284 282 271 253 248 245 244 243 252 246 248 265 265 262 263 268 269 273
300 302 302 299 295 289 286 281 278 275 273 270 267 264 261 258 259 262 257 256 257 260 260 253 258 263 247 211 200 186 195 217 227 239 233 220 222 237 242 239 238 236 235 237 246 255 246 239 240 236 237 240 241 251 248 246 253 260 263 266 267 270 270 270 272 270 269 269 281 284 281 268 254 244 242 243 245 249 256 259 256 255 263 271 275
303 301 297 296 295 291 285 282 278 277 275 273 270 268 262 257 252 251 256 250 246 250 251 245 251 254 246 235 214 189 192 186 204 224 230 234 229 219 229 243 242 241 240 240 239 245 250 252 250 246 242 247 247 246 253 256 257 260 261 264 264 263 266 272 272 266 262 264 270 274 273 272 268 259 244 243 248 252 258 263 266 264 266 271 269
294 296 296 296 295 293 287 282 281 278 275 273 274 273 268 261 254 250 247 248 245 244 249 250 254 262 256 238 233 218 203 208 205 208 224 230 229 227 218 224 230 233 237 240 239 239 242 248 254 254 246 246 253 255 254 259 263 262 261 265 267 268 271 272 273 271 266 264 261 255 258 267 272 270 262 251 248 253 260 263 261 261 266 270 271
294 293 293 293 291 291 286 280 276 273 273 273 274 271 268 262 258 252 250 246 246 247 246 251 258 268 271 269 268 263 262 240 246 238 230 234 238 237 235 224 218 225 229 235 238 237 237 240 244 252 252 247 247 253 261 273 268 262 264 264 266 270 271 272 272 270 268 266 262 264 261 262 253 250 248 245 250 257 273 264 260 264 264 266 268
294 293 293 293 290 287 282 276 272 268 269 274 274 273 267 263 258 253 254 256 247 240 243 249 255 267 271 271 265 265 263 257 250 253 261 266 257 249 241 232 232 233 238 238 238 239 241 242 245 252 254 254 245 250 272 284 282 278 267 267 269 270 270 271 273 273 271 265 257 259 263 263 258 252 255 257 253 243 249 273 282 279 273 265 266
292 291 292 292 288 283 278 273 269 266 266 272 273 272 269 264 260 256 253 258 254 244 240 242 246 249 256 262 266 261 256 258 265 257 245 256 271 272 269 267 249 239 239 237 235 240 243 242 246 254 254 252 257 255 260 275 276 276 273 265 265 269 270 271 272 272 269 264 260 261 261 260 262 265 263 259 263 287 301 283 280 278 278 280 273
291 292 291 292 287 283 278 273 272 268 269 266 266 272 270 267 263 258 255 254 252 246 242 241 244 248 251 255 261 265 265 273 285 282 263 269 273 263 265 265 264 255 246 244 244 244 244 243 248 255 263 262 255 254 265 272 275 276 275 269 262 266 268 271 271 271 271 268 267 269 266 260 258 267 267 266 262 262 271 273 272 274 274 275 271
nan 292 295 292 290 285 280 275 270 268 264 264 268 270 269 267 265 265 261 254 247 243 240 239 242 246 249 255 261 263 262 263 273 275 273 276 284 280 269 275 272 267 265 264 262 253 249 247 248 256 262 263 258 260 267 272 275 275 273 268 261 264 263 266 269 269 268 269 270 270 270 261 259 261 269 273 271 271 267 263 260 256 257 260 269
nan 294 291 287 283 284 279 276 271 266 266 268 266 267 270 270 266 267 267 258 249 245 241 242 244 246 247 250 259 262 262 261 267 275 275 275 280 282 275 265 269 271 264 256 247 244 249 250 250 251 254 258 253 264 268 268 270 273 273 269 259 260 261 261 262 264 263 265 267 268 270 267 264 271 274 278 278 275 269 263 260 260 259 258 260
nan 288 284 279 274 276 274 274 273 270 269 269 268 268 270 271 272 272 269 259 251 243 238 239 241 242 244 243 247 258 259 257 253 259 262 263 273 281 278 266 261 266 267 260 248 241 235 236 242 247 248 252 254 259 259 260 263 266 272 263 256 254 254 253 256 258 261 262 264 264 265 267 269 274 282 289 275 270 268 264 262 262 259 259 262
nan nan 280 285 285 280 273 276 274 270 271 275 272 271 271 272 274 273 271 263 252 246 239 231 230 238 246 245 243 250 253 252 257 260 267 269 267 275 277 273 268 264 260 261 257 253 251 252 242 241 249 254 256 257 256 257 260 266 263 257 252 249 249 247 255 262 264 264 265 264 263 266 269 266 270 268 264 266 265 267 263 259 257 257 264
nan 288 286 286 284 277 274 274 272 276 276 276 275 275 272 273 275 275 272 264 253 246 242 233 229 231 241 245 240 247 256 255 253 259 263 266 270 272 273 268 268 272 275 271 262 260 257 256 251 246 247 255 258 262 264 257 259 260 262 258 254 254 255 254 255 259 262 262 263 269 268 264 264 264 267 265 264 266 265 264 264 264 266 268 267
286 287 287 275 276 277 283 286 284 279 276 273 274 275 276 275 274 275 274 266 257 249 245 239 232 231 234 240 240 243 252 256 258 261 265 268 270 272 271 268 262 263 271 270 267 261 264 266 263 263 265 255 254 257 261 262 263 266 264 257 251 254 258 260 261 260 261 261 258 255 261 261 258 263 267 263 261 263 258 257 259 257 251 249 243
275 275 273 273 282 289 283 278 278 275 268 269 272 279 277 274 272 274 277 269 259 250 244 242 240 236 233 233 234 234 243 250 257 262 263 269 274 276 275 271 266 267 267 267 267 265 261 257 259 261 258 257 256 257 257 265 269 272 269 252 248 249 253 258 265 266 261 259 259 256 250 252 261 263 264 266 262 258 253 246 247 247 249 247 239
263 266 263 286 287 278 275 276 278 276 275 273 276 276 278 277 273 277 276 270 263 255 246 244 241 232 230 232 234 238 237 243 254 261 260 266 276 284 282 272 267 261 260 259 265 262 257 258 260 263 259 255 250 256 255 259 263 263 251 246 250 250 252 257 264 266 258 250 253 253 249 252 256 256 257 257 258 259 255 253 253 246 244 246 233
269 283 294 287 278 273 269 274 286 287 286 282 280 281 283 283 275 270 269 265 256 249 245 242 240 230 222 226 227 230 238 243 250 255 257 263 274 284 283 277 267 260 254 248 260 266 261 259 265 268 262 256 255 254 254 254 257 256 251 239 241 247 248 256 261 260 254 249 248 249 249 254 258 257 258 260 257 252 251 nan 248 252 246 237 235
272 282 280 279 279 277 277 278 284 288 290 289 284 284 282 279 278 270 264 256 249 245 241 239 239 233 223 218 217 220 229 240 245 251 251 256 271 280 276 269 260 252 245 227 223 260 265 264 268 268 266 264 259 258 265 263 256 252 246 241 237 240 236 253 261 261 251 247 248 246 246 255 252 253 254 255 nan nan nan nan nan 250 245 234 nan
273 268 270 273 282 283 278 276 280 283 283 280 278 278 276 272 269 265 266 265 254 242 236 235 237 233 227 223 219 219 227 234 240 244 248 253 266 275 269 261 261 256 255 244 216 259 274 279 278 276 275 272 268 265 267 266 260 255 249 245 242 240 238 241 240 240 238 243 246 245 246 252 250 nan nan nan nan nan nan nan nan nan nan nan nan
266 268 277 285 287 288 288 287 285 280 279 280 277 274 268 265 266 268 270 267 259 240 230 231 235 234 224 219 221 222 225 234 239 239 243 250 261 272 269 256 248 249 258 264 239 258 284 292 288 284 280 275 269 266 259 257 258 253 248 247 248 246 238 233 230 230 235 235 245 252 256 nan 248 245 nan nan nan nan nan nan nan nan nan nan nan
277 282 283 291 297 297 293 291 285 278 276 277 273 268 262 264 265 268 268 274 267 250 230 227 228 226 219 218 218 217 220 225 232 240 242 246 255 266 268 263 258 254 258 267 276 271 274 313 300 286 284 283 276 265 263 260 256 250 245 243 243 243 242 237 234 236 242 248 251 253 251 249 nan nan nan nan nan nan nan nan nan nan nan nan nan
284 288 294 299 299 298 294 289 283 277 278 273 262 258 255 256 257 260 265 270 269 261 241 228 227 221 217 220 230 224 217 219 223 231 239 243 252 263 269 266 266 266 260 260 258 250 275 314 305 293 287 285 282 278 273 265 254 248 244 240 240 238 242 241 233 234 237 236 242 nan nan nan nan nan nan nan nan nan nan nan nan nan nan nan 255
296 300 299 300 300 300 301 294 294 291 287 280 266 253 249 248 252 255 258 265 267 264 244 225 215 215 216 217 222 227 222 217 216 219 229 239 250 261 267 266 271 272 269 266 270 232 161 174 280 294 297 290 282 274 272 259 241 235 234 nan nan nan nan nan nan nan nan nan nan nan nan nan nan nan nan nan nan 231 nan nan nan nan nan nan nan
302 303 305 307 304 302 300 298 296 296 295 291 277 255 248 244 245 248 253 255 249 238 231 219 215 217 217 219 221 221 223 216 210 214 222 235 241 248 258 261 253 244 248 261 276 285 216 161 169 287 309 308 311 281 251 242 230 187 180 nan nan nan nan nan nan nan nan nan nan nan nan nan nan nan nan nan nan 238 nan nan nan 264 nan 269 nan
305 308 311 310 305 304 303 303 304 301 300 294 277 254 247 243 243 246 248 253 248 236 221 213 214 214 221 219 221 225 223 217 210 214 215 223 227 234 240 254 260 252 233 244 257 260 243 207 186 212 240 315 351 323 299 294 nan nan nan nan nan nan nan nan nan nan nan nan nan nan nan nan nan nan nan nan nan nan nan 263 266 271 273 nan nan
310 311 312 310 309 308 303 297 294 296 298 298 292 268 258 249 238 235 245 247 247 243 227 212 207 210 217 220 221 220 220 216 221 226 215 218 219 224 231 236 224 264 250 245 249 257 245 224 217 227 220 197 217 297 309 311 281 nan nan nan nan nan nan nan nan nan 190 nan nan nan nan nan nan nan nan nan nan 266 272 278 282 283 284 nan nan